SBONWEB Weather Reports


Display with metric or nautical units.
time (UTC)temp
F
wind
direction
speed
MPH
gust
MPH
rain 1hr
in
rain 24hr
in
rain mn
in
humidity
%
barometer
mb
20260904123604 87 147 3.0 9.0 0.00 0.00 0.00 47 1019.8
20260904122703 86 137 3.0 8.0 0.00 0.00 0.00 49 1020.0
20260904121803 86 100 3.0 8.0 0.00 0.00 0.00 50 1020.0
20260904120903 85 127 3.0 8.0 0.00 0.00 0.00 49 1020.0
20260904120003 86 96 3.0 8.0 0.00 0.00 0.00 49 1020.1
20260904115403 85 91 3.0 8.0 0.00 0.00 0.00 50 1020.1
20260904114503 85 151 2.0 7.0 0.00 0.00 0.00 49 1020.2
20260904113603 85 133 3.0 6.0 0.00 0.00 0.00 49 1020.3
20260904112703 85 95 5.0 10.0 0.00 0.00 0.00 49 1020.2
20260904111803 85 100 2.0 10.0 0.00 0.00 0.00 49 1020.3
20260904110904 86 121 1.0 3.0 0.00 0.00 0.00 48 1020.3
20260904110003 85 122 2.0 3.0 0.00 0.00 0.00 49 1020.4
20260904105403 85 120 2.0 4.0 0.00 0.00 0.00 52 1020.4
20260904104504 84 135 3.0 6.0 0.00 0.00 0.00 51 1020.5
20260904103603 84 133 2.0 7.0 0.00 0.00 0.00 50 1020.5
20260904102703 84 130 2.0 6.0 0.00 0.00 0.00 49 1020.7
20260904101803 84 76 2.0 6.0 0.00 0.00 0.00 51 1020.8
20260904100903 83 132 2.0 6.0 0.00 0.00 0.00 52 1020.9
20260904100003 83 125 2.0 7.0 0.00 0.00 0.00 50 1021.0
20260904095403 83 131 2.0 4.0 0.00 0.00 0.00 50 1021.0
20260904094717 83 137 2.0 4.0 0.00 0.00 0.00 51 1021.1
20260904093604 83 134 2.0 5.0 0.00 0.00 0.00 50 1021.3
20260904092703 83 149 1.0 4.0 0.00 0.00 0.00 50 1021.2
20260904091803 83 50 1.0 3.0 0.00 0.00 0.00 49 1021.3
20260904090903 82 166 1.0 3.0 0.00 0.00 0.00 50 1021.2
20260904090003 81 96 2.0 6.0 0.00 0.00 0.00 50 1021.2
20260904085403 81 96 2.0 6.0 0.00 0.00 0.00 49 1021.2
20260904084503 80 176 2.0 5.0 0.00 0.00 0.00 52 1021.1
20260904083604 80 93 3.0 6.0 0.00 0.00 0.00 50 1021.2
20260904082703 81 61 1.0 6.0 0.00 0.00 0.00 50 1021.1
20260904081803 80 28 1.0 4.0 0.00 0.00 0.00 53 1021.1
20260904080903 80 242 1.0 4.0 0.00 0.00 0.00 53 1021.0
20260904080004 80 61 1.0 3.0 0.00 0.00 0.00 53 1021.1
20260904075403 79 21 2.0 2.0 0.00 0.00 0.00 55 1021.1
20260904074503 79 35 2.0 3.0 0.00 0.00 0.00 54 1021.1
20260904073603 78 317 2.0 4.0 0.00 0.00 0.00 58 1021.1
20260904072703 77 330 2.0 4.0 0.00 0.00 0.00 59 1021.1
20260904071803 76 7 3.0 4.0 0.00 0.00 0.00 59 1021.0
20260904070903 75 3 4.0 7.0 0.00 0.00 0.00 59 1020.9
20260904070216 75 13 4.0 7.0 0.00 0.00 0.00 60 1020.9
20260904065403 74 21 4.0 7.0 0.00 0.00 0.00 61 1020.9
20260904064718 74 15 3.0 7.0 0.00 0.00 0.00 62 1020.9
20260904063603 73 17 3.0 5.0 0.00 0.00 0.00 63 1020.8
20260904062703 73 354 4.0 6.0 0.00 0.00 0.00 63 1020.7
20260904061803 72 341 4.0 6.0 0.00 0.00 0.00 64 1020.6
20260904061117 72 359 4.0 6.0 0.00 0.00 0.00 65 1020.7
20260904060003 71 14 5.0 8.0 0.00 0.00 0.00 64 1020.7
20260904055403 71 19 5.0 9.0 0.00 0.00 0.00 64 1020.6
20260904054503 71 17 6.0 8.0 0.00 0.00 0.00 65 1020.5
20260904053603 71 9 6.0 9.0 0.00 0.00 0.00 64 1020.6
20260904052703 70 353 5.0 10.0 0.00 0.00 0.00 65 1020.5
20260904051803 69 347 3.0 9.0 0.00 0.00 0.00 68 1020.4
20260904051117 68 14 3.0 7.0 0.00 0.00 0.00 71 1020.3
20260904050003 66 7 2.0 8.0 0.00 0.00 0.00 73 1020.2
20260904045403 66 339 1.0 4.0 0.00 0.00 0.00 73 1020.2
20260904044503 66 334 0.0 2.0 0.00 0.00 0.00 73 1020.1
20260904043603 66 247 1.0 2.0 0.00 0.00 0.00 72 1020.1
20260904042703 66 225 1.0 2.0 0.00 0.00 0.00 72 1020.1
20260904041803 66 228 1.0 3.0 0.00 0.00 0.00 72 1020.1
20260904041118 66 226 1.0 3.0 0.00 0.00 0.00 75 1020.1
20260904040003 66 234 1.0 2.0 0.00 0.00 0.00 74 1019.9
20260904035617 66 234 0.0 2.0 0.00 0.00 0.00 74 1020.1
20260904034503 66 348 1.0 2.0 0.00 0.00 0.00 75 1020.1
20260904033603 66 229 1.0 3.0 0.00 0.00 0.00 74 1020.1
20260904032703 66 231 0.0 2.0 0.00 0.00 0.00 75 1020.2
20260904031803 66 0 0.0 0.0 0.00 0.00 0.00 76 1020.3
20260904030903 66 0 0.0 0.0 0.00 0.00 0.00 76 1020.2
20260904030003 66 0 0.0 0.0 0.00 0.00 0.00 76 1020.3
20260904025617 66 0 0.0 0.0 0.00 0.00 0.00 76 1020.3
20260904024503 66 209 1.0 2.0 0.00 0.00 0.00 75 1020.2
20260904023603 67 206 0.0 3.0 0.00 0.00 0.00 74 1020.3
20260904022703 68 0 0.0 0.0 0.00 0.00 0.00 73 1020.2
20260904021803 69 0 0.0 0.0 0.00 0.00 0.00 72 1020.2
20260904020903 69 228 1.0 4.0 0.00 0.00 0.00 71 1020.2
20260904015403 69 223 1.0 4.0 0.00 0.00 0.00 71 1020.0
20260904014503 68 226 0.0 2.0 0.00 0.00 0.00 73 1020.0
20260904013603 68 0 1.0 0.0 0.00 0.00 0.00 72 1020.0
20260904012703 69 231 1.0 3.0 0.00 0.00 0.00 71 1020.0
20260904011803 70 232 0.0 3.0 0.00 0.00 0.00 70 1020.0
20260904010903 69 250 1.0 2.0 0.00 0.00 0.00 71 1020.1
20260904010003 69 248 0.0 2.0 0.00 0.00 0.00 71 1020.1
20260904005403 69 245 0.0 2.0 0.00 0.00 0.00 72 1020.0
20260904004503 70 244 0.0 1.0 0.00 0.00 0.00 70 1020.1
20260904003817 70 272 0.0 3.0 0.00 0.00 0.00 69 1020.1
20260904002703 72 313 2.0 3.0 0.00 0.00 0.00 67 1020.2
20260904001803 72 259 1.0 4.0 0.00 0.00 0.00 67 1020.2
20260904000903 72 223 1.0 3.0 0.00 0.00 0.00 67 1020.3
20260904000003 72 326 2.0 6.0 0.00 0.00 0.00 66 1020.3
20260903235617 73 333 2.0 6.0 0.00 0.00 0.00 65 1020.3
20260903234503 73 269 2.0 4.0 0.00 0.00 0.00 64 1020.4
20260903233603 72 282 2.0 6.0 0.00 0.00 0.00 65 1020.4
20260903232703 72 233 1.0 6.0 0.00 0.00 0.00 66 1020.5
20260903231803 72 227 2.0 3.0 0.00 0.00 0.00 66 1020.3
20260903230903 73 240 2.0 8.0 0.00 0.00 0.00 66 1020.4
20260903230004 72 262 2.0 5.0 0.00 0.00 0.00 67 1020.2
20260903225403 72 280 2.0 6.0 0.00 0.00 0.00 68 1020.2
20260903224503 71 340 1.0 5.0 0.00 0.00 0.00 68 1020.2
20260903223603 71 261 1.0 4.0 0.00 0.00 0.00 70 1020.2
20260903222704 71 246 1.0 2.0 0.00 0.00 0.00 71 1020.3
20260903221803 71 230 1.0 2.0 0.00 0.00 0.00 71 1020.3
20260903220903 70 227 1.0 2.0 0.00 0.00 0.00 72 1020.4
20260903220003 71 216 1.0 3.0 0.00 0.00 0.00 71 1020.4
20260903215617 71 209 1.0 3.0 0.00 0.00 0.00 71 1020.4
20260903214504 71 213 1.0 3.0 0.00 0.00 0.00 70 1020.4
20260903213817 71 223 1.0 2.0 0.00 0.00 0.00 70 1020.3
20260903212703 72 222 0.0 3.0 0.00 0.00 0.00 69 1020.3
20260903211804 71 0 1.0 0.0 0.00 0.00 0.00 70 1020.3
20260903210903 71 226 1.0 2.0 0.00 0.00 0.00 71 1020.2
20260903210003 71 237 1.0 2.0 0.00 0.00 0.00 70 1020.2
20260903205403 72 246 1.0 2.0 0.00 0.00 0.00 70 1020.1
20260903204718 72 251 1.0 2.0 0.00 0.00 0.00 69 1020.3
20260903203603 72 314 2.0 3.0 0.00 0.00 0.00 70 1020.2
20260903202703 72 278 1.0 3.0 0.00 0.00 0.00 70 1020.2
20260903202018 71 255 1.0 2.0 0.00 0.00 0.00 71 1020.1
20260903200903 71 247 1.0 2.0 0.00 0.00 0.00 71 1020.1
20260903200216 71 210 1.0 2.0 0.00 0.00 0.00 71 1020.0
20260903195403 72 227 2.0 2.0 0.00 0.00 0.00 71 1020.0
20260903194503 72 218 1.0 2.0 0.00 0.00 0.00 69 1020.0
20260903193603 72 228 1.0 2.0 0.00 0.00 0.00 70 1019.9
20260903192918 72 226 1.0 3.0 0.00 0.00 0.00 70 1019.9
20260903191803 72 221 0.0 2.0 0.00 0.00 0.00 71 1019.8
20260903190903 72 221 0.0 1.0 0.00 0.00 0.00 70 1019.7
20260903190003 73 0 0.0 0.0 0.00 0.00 0.00 70 1019.6
20260903185403 73 221 0.0 1.0 0.00 0.00 0.00 69 1019.6
20260903184503 73 221 0.0 2.0 0.00 0.00 0.00 69 1019.6
20260903183603 74 0 0.0 0.0 0.00 0.00 0.00 68 1019.5
20260903182703 74 0 0.0 0.0 0.00 0.00 0.00 68 1019.4
20260903181803 75 0 0.0 0.0 0.00 0.00 0.00 68 1019.3
20260903180903 76 0 0.0 0.0 0.00 0.00 0.00 66 1019.3
20260903180003 76 0 0.0 0.0 0.00 0.00 0.00 64 1019.0
20260903175404 77 201 0.0 2.0 0.00 0.00 0.00 62 1019.0
20260903174503 78 200 1.0 1.0 0.00 0.00 0.00 62 1018.9
20260903173603 80 193 1.0 2.0 0.00 0.00 0.00 62 1018.9
20260903172703 80 189 1.0 2.0 0.00 0.00 0.00 60 1018.9
20260903171804 81 189 0.0 2.0 0.00 0.00 0.00 60 1019.0
20260903170903 82 0 0.0 0.0 0.00 0.00 0.00 59 1019.0
20260903170003 83 0 0.0 0.0 0.00 0.00 0.00 56 1019.0
20260903165403 84 166 1.0 3.0 0.00 0.00 0.00 53 1018.9
20260903164504 84 167 0.0 4.0 0.00 0.00 0.00 48 1018.9
20260903163603 85 171 2.0 3.0 0.00 0.00 0.00 47 1018.9
20260903162703 85 172 2.0 4.0 0.00 0.00 0.00 46 1018.9
20260903161803 86 180 2.0 5.0 0.00 0.00 0.00 46 1018.9
20260903160904 87 178 2.0 6.0 0.00 0.00 0.00 44 1018.9
20260903160217 87 179 2.0 5.0 0.00 0.00 0.00 43 1018.9
20260903155403 87 177 2.0 5.0 0.00 0.00 0.00 41 1019.0
20260903154503 87 177 2.0 6.0 0.00 0.00 0.00 40 1019.1
20260903153603 87 160 2.0 6.0 0.00 0.00 0.00 42 1019.1
20260903152703 87 147 2.0 5.0 0.00 0.00 0.00 45 1019.1
20260903151803 86 152 2.0 6.0 0.00 0.00 0.00 44 1019.1
20260903150904 86 213 3.0 5.0 0.00 0.00 0.00 44 1019.1
20260903150003 87 197 3.0 6.0 0.00 0.00 0.00 44 1019.1
20260903145618 87 181 2.0 6.0 0.00 0.00 0.00 44 1019.2
20260903144503 88 194 2.0 4.0 0.00 0.00 0.00 45 1019.2
20260903143603 88 157 2.0 7.0 0.00 0.00 0.00 44 1019.1
20260903142703 87 161 2.0 6.0 0.00 0.00 0.00 41 1019.1
20260903141803 87 160 2.0 5.0 0.00 0.00 0.00 41 1019.2
20260903141117 87 148 2.0 5.0 0.00 0.00 0.00 42 1019.3
20260903140218 86 194 2.0 5.0 0.00 0.00 0.00 41 1019.4
20260903135622 86 193 2.0 5.0 0.00 0.00 0.00 40 1019.5
20260903134504 86 181 2.0 4.0 0.00 0.00 0.00 42 1019.7
20260903133818 85 172 2.0 5.0 0.00 0.00 0.00 42 1019.7
20260903132918 85 161 2.0 4.0 0.00 0.00 0.00 42 1019.8
20260903131803 85 129 3.0 6.0 0.00 0.00 0.00 43 1019.9
20260903130903 86 126 3.0 8.0 0.00 0.00 0.00 45 1020.0
20260903130003 85 123 2.0 8.0 0.00 0.00 0.00 44 1020.2
20260903125403 86 189 2.0 5.0 0.00 0.00 0.00 44 1020.2
20260903124503 86 176 2.0 6.0 0.00 0.00 0.00 46 1020.2